map of KIX home
KIX - Airport
Location
City:  Osaka, Osaka, Japan
Name:Kansai International Airport
ICAO:RJBB
IATA:KIX

Details
Type:Airport (Aerodrome, Airfield)
Use:Public/Civil, International (customs port of entry)
Latitude:3425'38"N (34.427306)
Longitude:13514'39"E (135.244072)
Datum:WGS 1984
Elevation:26 ft (8 m)
Variation:7.65W (WMM2015 magnetic declination)
-0.07 annual change
Runways:1
Longest:11483 × 200 ft (3500 × 61 m), paved

Time
Time Zone:UTC+9
Local Time:

Weather
METAR:RJBB 220400Z 30007KT 270V340 9999 FEW025 SCT035 10/02 Q1016 NOSIG
TAF:RJBB 212305Z 2200/2306 30016KT 9999 FEW025 SCT050
BECMG 2207/2209 34010KT
BECMG 2215/2218 26010KT

Related Locations
Nearby:
Farthest:SSMT: 12015 mi / 19336 km
Mostardas, RS, BR

Find:

   beyond  
but within

Other Information
Maps:
NOTAMs:
Links:
Sources:

  
  • flag of Japan
  • flag of Osaka
  • flag of Osaka
  

Sectional Chart

Flight Planning
at skyvector.com

Satellite Image

Google Maps Satellite view

 

Copyright © 2004-2019 Karl L. Swartz. All rights reserved.
The Great Circle Mapper name and logo are trademarks of the Great Circle Mapper.
All other trademarks mentioned herein belong to their respective owners.
Please see credits for attibutions and further copyright information.

  Follow gcmap on Facebook Follow gcmap on Twitter Follow gcmap on Google+ GCmap on LinkedIn

hCard Microformat

Geo Microformat